K7SSW Weather Reports


time (UTC)temp
C
wind
direction
speed
KPH
gust
KPH
rain 1hr
cm
rain 24hr
cm
rain mn
cm
humidity
%
barometer
mb
20260507040036 12 0 3.2 11.3 0.00 0.00 0.00 82 1021.9
20260507034543 12 188 1.6 8.0 0.00 0.00 0.00 82 1021.8
20260507033044 12 113 1.6 6.4 0.00 0.00 0.00 82 1021.8
20260507031539 13 160 1.6 4.8 0.00 0.00 0.00 82 1021.7
20260507030039 13 197 3.2 6.4 0.00 0.00 0.00 81 1021.7
20260507024540 13 173 0.0 4.8 0.00 0.00 0.00 81 1021.6
20260507023038 13 0 1.6 8.0 0.00 0.00 0.00 81 1021.5
20260507021544 13 229 1.6 8.0 0.00 0.00 0.00 81 1021.6
20260507020041 13 197 1.6 6.4 0.00 0.00 0.00 81 1021.5
20260507014547 13 195 3.2 12.9 0.00 0.00 0.00 81 1021.4
20260507013037 13 201 4.8 11.3 0.00 0.00 0.00 81 1021.6
20260507011540 13 157 4.8 9.7 0.00 0.00 0.00 80 1021.6
20260507010038 13 138 0.0 11.3 0.00 0.00 0.00 81 1021.6
20260507004545 13 166 1.6 11.3 0.00 0.00 0.00 81 1021.7
20260507003040 13 169 6.4 12.9 0.00 0.00 0.00 80 1021.6
20260507001547 13 164 1.6 12.9 0.00 0.00 0.00 80 1021.6
20260507000038 13 165 4.8 11.3 0.00 0.00 0.00 80 1021.7
20260506234537 13 130 3.2 8.0 0.00 0.00 0.00 80 1021.7
20260506233037 13 198 6.4 14.5 0.00 0.00 0.00 80 1021.8
20260506231536 13 145 3.2 12.9 0.00 0.00 0.00 80 1021.7
20260506230041 13 142 4.8 14.5 0.00 0.00 0.00 79 1021.8
20260506224539 13 171 3.2 16.1 0.00 0.00 0.00 79 1021.8
20260506223037 13 201 6.4 14.5 0.00 0.00 0.00 78 1021.8
20260506221538 13 157 8.0 17.7 0.00 0.00 0.00 77 1021.8
20260506220040 13 194 4.8 17.7 0.00 0.00 0.00 78 1021.9
20260506214548 13 229 6.4 16.1 0.00 0.00 0.00 76 1021.9
20260506213040 13 139 3.2 8.0 0.00 0.00 0.00 77 1021.9
20260506211539 13 161 3.2 12.9 0.00 0.00 0.00 77 1021.9
20260506210037 14 166 3.2 12.9 0.00 0.00 0.00 76 1021.8
20260506204543 13 151 8.0 19.3 0.00 0.00 0.00 77 1021.8
20260506203039 13 186 3.2 11.3 0.00 0.00 0.00 77 1021.7
20260506201537 13 261 8.0 17.7 0.00 0.00 0.00 78 1021.7
20260506200048 13 250 3.2 12.9 0.00 0.00 0.00 79 1021.8
20260506194542 13 187 4.8 11.3 0.00 0.00 0.00 80 1021.6
20260506193039 12 143 9.7 16.1 0.00 0.00 0.00 80 1021.6
20260506191538 12 192 4.8 12.9 0.00 0.00 0.00 81 1021.7
20260506190037 13 181 4.8 12.9 0.00 0.00 0.00 82 1021.5
20260506184537 12 145 4.8 16.1 0.00 0.00 0.00 82 1021.5
20260506183039 12 159 6.4 16.1 0.00 0.00 0.00 84 1021.6
20260506181539 12 205 6.4 16.1 0.00 0.00 0.00 85 1021.5
20260506180046 12 193 6.4 17.7 0.00 0.00 0.00 85 1021.5
20260506174537 12 146 3.2 19.3 0.00 0.00 0.00 86 1021.1
20260506173041 11 150 4.8 14.5 0.00 0.00 0.00 88 1021.0
20260506171545 11 143 3.2 17.7 0.00 0.00 0.00 88 1021.4
20260506170041 11 190 4.8 12.9 0.00 0.00 0.00 88 1021.4
20260506164538 11 151 3.2 11.3 0.00 0.00 0.00 88 1021.3
20260506163039 11 173 4.8 16.1 0.00 0.00 0.00 88 1021.3
20260506161537 11 170 6.4 14.5 0.00 0.00 0.00 89 1021.0
20260506160038 11 184 3.2 14.5 0.00 0.00 0.00 90 1020.7
20260506154542 11 110 6.4 14.5 0.00 0.00 0.00 92 1020.5
20260506153038 11 126 6.4 19.3 0.00 0.00 0.00 92 1020.8
20260506151538 11 192 1.6 8.0 0.00 0.00 0.00 92 1021.1
20260506150038 11 192 3.2 11.3 0.00 0.00 0.00 92 1021.1
20260506144551 11 155 3.2 11.3 0.00 0.00 0.00 92 1020.6
20260506143037 11 191 4.8 9.7 0.00 0.00 0.00 92 1020.7
20260506141538 11 218 3.2 8.0 0.00 0.00 0.00 92 1020.7
20260506140038 11 209 1.6 9.7 0.00 0.00 0.00 91 1020.6
20260506134537 11 203 3.2 8.0 0.00 0.00 0.00 90 1020.5
20260506133042 11 204 4.8 12.9 0.00 0.00 0.00 90 1020.4
20260506131536 11 211 1.6 9.7 0.00 0.00 0.00 90 1020.4
20260506130044 11 142 1.6 9.7 0.00 0.00 0.00 89 1020.3
20260506124540 11 163 3.2 12.9 0.00 0.00 0.00 89 1019.8
20260506123039 11 185 1.6 6.4 0.00 0.00 0.00 89 1020.1
20260506121538 11 169 1.6 12.9 0.00 0.00 0.00 89 1019.9
20260506120038 11 155 4.8 14.5 0.00 0.00 0.00 89 1019.8
20260506114539 11 173 1.6 11.3 0.00 0.00 0.00 89 1019.9
20260506113038 11 92 3.2 11.3 0.00 0.00 0.00 89 1019.7
20260506111537 11 137 4.8 11.3 0.00 0.00 0.00 89 1019.5
20260506110039 11 151 1.6 9.7 0.00 0.00 0.00 89 1019.6
20260506104537 11 187 1.6 6.4 0.00 0.00 0.00 89 1019.4
20260506103038 11 224 0.0 6.4 0.00 0.00 0.00 89 1019.4
20260506101541 11 213 3.2 11.3 0.00 0.00 0.00 88 1019.5
20260506100038 11 207 1.6 9.7 0.00 0.00 0.00 88 1019.3
20260506094538 11 181 3.2 12.9 0.00 0.00 0.00 88 1019.2
20260506093041 11 198 3.2 8.0 0.00 0.00 0.00 88 1019.1
20260506091537 11 0 1.6 6.4 0.00 0.00 0.00 87 1018.9
20260506090039 11 180 0.0 8.0 0.00 0.00 0.00 87 1018.9
20260506084540 11 150 3.2 11.3 0.00 0.00 0.00 87 1018.9
20260506083042 11 0 0.0 8.0 0.00 0.00 0.00 87 1018.8
20260506081537 12 221 1.6 6.4 0.00 0.00 0.00 87 1018.7
20260506073038 12 117 4.8 14.5 0.00 0.00 0.00 85 1018.5
20260506071541 12 167 4.8 14.5 0.00 0.00 0.00 85 1018.5
20260506061538 13 213 0.0 8.0 0.00 0.00 0.00 82 1018.2
20260506044546 15 131 3.2 6.4 0.00 0.00 0.00 81 1017.6
20260506043040 15 123 3.2 9.7 0.00 0.00 0.00 80 1017.6
20260506041550 15 117 3.2 6.4 0.00 0.00 0.00 79 1017.4